Year,Month,Day,Hour,Minute,Value (Times are PST for temperature in C)
2014,07,22,00,00,12.80
2014,07,22,00,01,12.80
2014,07,22,00,02,12.80
2014,07,22,00,03,12.80
2014,07,22,00,04,12.80
2014,07,22,00,05,12.80
2014,07,22,00,06,12.80
2014,07,22,00,07,12.80
2014,07,22,00,08,12.70
2014,07,22,00,09,12.70
2014,07,22,00,10,12.70
2014,07,22,00,11,12.70
2014,07,22,00,12,12.60
2014,07,22,00,13,12.60
2014,07,22,00,14,12.60
2014,07,22,00,15,12.60
2014,07,22,00,16,12.60
2014,07,22,00,17,12.60
2014,07,22,00,18,12.70
2014,07,22,00,19,12.80
2014,07,22,00,20,12.90
2014,07,22,00,21,13.00
2014,07,22,00,22,13.00
2014,07,22,00,23,13.10
2014,07,22,00,24,13.20
2014,07,22,00,25,13.20
2014,07,22,00,26,13.30
2014,07,22,00,27,13.30
2014,07,22,00,28,13.40
2014,07,22,00,29,13.50
2014,07,22,00,30,13.60
2014,07,22,00,31,13.60
2014,07,22,00,32,13.70
2014,07,22,00,33,13.70
2014,07,22,00,34,13.80
2014,07,22,00,35,13.80
2014,07,22,00,36,13.80
2014,07,22,00,37,13.80
2014,07,22,00,38,13.80
2014,07,22,00,39,13.80
2014,07,22,00,40,13.80
2014,07,22,00,41,13.80
2014,07,22,00,42,13.80
2014,07,22,00,43,13.80
2014,07,22,00,44,13.80
2014,07,22,00,45,13.80
2014,07,22,00,46,13.80
2014,07,22,00,47,13.80
2014,07,22,00,48,13.80
2014,07,22,00,49,13.70
2014,07,22,00,50,13.70
2014,07,22,00,51,13.70
2014,07,22,00,52,13.70
2014,07,22,00,53,13.60
2014,07,22,00,54,13.60
2014,07,22,00,55,13.50
2014,07,22,00,56,13.50
2014,07,22,00,57,13.50
2014,07,22,00,58,13.50
2014,07,22,00,59,13.50
2014,07,22,01,00,13.50
2014,07,22,01,01,13.50
2014,07,22,01,02,13.40
2014,07,22,01,03,13.40
2014,07,22,01,04,13.40
2014,07,22,01,05,13.30
2014,07,22,01,06,13.30
2014,07,22,01,07,13.30
2014,07,22,01,08,13.20
2014,07,22,01,09,13.10
2014,07,22,01,10,13.10
2014,07,22,01,11,13.10
2014,07,22,01,12,13.10
2014,07,22,01,13,13.00
2014,07,22,01,14,13.00
2014,07,22,01,15,13.00
2014,07,22,01,16,13.00
2014,07,22,01,17,13.00
2014,07,22,01,18,13.00
2014,07,22,01,19,12.90
2014,07,22,01,20,12.90
2014,07,22,01,21,12.80
2014,07,22,01,22,12.80
2014,07,22,01,23,12.70
2014,07,22,01,24,12.70
2014,07,22,01,25,12.60
2014,07,22,01,26,12.60
2014,07,22,01,27,12.60
2014,07,22,01,28,12.50
2014,07,22,01,29,12.50
2014,07,22,01,30,12.40
2014,07,22,01,31,12.40
2014,07,22,01,32,12.40
2014,07,22,01,33,12.40
2014,07,22,01,34,12.40
2014,07,22,01,35,12.30
2014,07,22,01,36,12.30
2014,07,22,01,37,12.30
2014,07,22,01,38,12.40
2014,07,22,01,39,12.40
2014,07,22,01,40,12.40
2014,07,22,01,41,12.40
2014,07,22,01,42,12.40
2014,07,22,01,43,12.30
2014,07,22,01,44,12.30
2014,07,22,01,45,12.30
2014,07,22,01,46,12.30
2014,07,22,01,47,12.30
2014,07,22,01,48,12.30
2014,07,22,01,49,12.30
2014,07,22,01,50,12.30
2014,07,22,01,51,12.30
2014,07,22,01,52,12.20
2014,07,22,01,53,12.20
2014,07,22,01,54,12.20
2014,07,22,01,55,12.20
2014,07,22,01,56,12.20
2014,07,22,01,57,12.20
2014,07,22,01,58,12.20
2014,07,22,01,59,12.10
2014,07,22,02,00,12.10
2014,07,22,02,01,12.10
2014,07,22,02,02,12.10
2014,07,22,02,03,12.10
2014,07,22,02,04,12.00
2014,07,22,02,05,12.00
2014,07,22,02,06,11.90
2014,07,22,02,07,11.90
2014,07,22,02,08,11.90
2014,07,22,02,09,11.90
2014,07,22,02,10,11.80
2014,07,22,02,11,11.80
2014,07,22,02,12,11.80
2014,07,22,02,13,11.80
2014,07,22,02,14,11.70
2014,07,22,02,15,11.70
2014,07,22,02,16,11.70
2014,07,22,02,17,11.70
2014,07,22,02,18,11.70
2014,07,22,02,19,11.60
2014,07,22,02,20,11.60
2014,07,22,02,21,11.60
2014,07,22,02,22,11.60
2014,07,22,02,23,11.60
2014,07,22,02,24,11.60
2014,07,22,02,25,11.60
2014,07,22,02,26,11.60
2014,07,22,02,27,11.60
2014,07,22,02,28,11.60
2014,07,22,02,29,11.60
2014,07,22,02,30,11.60
2014,07,22,02,31,11.60
2014,07,22,02,32,11.60
2014,07,22,02,33,11.60
2014,07,22,02,34,11.60
2014,07,22,02,35,11.60
2014,07,22,02,36,11.70
2014,07,22,02,37,11.70
2014,07,22,02,38,11.80
2014,07,22,02,39,11.80
2014,07,22,02,40,11.70
2014,07,22,02,41,11.70
2014,07,22,02,42,11.60
2014,07,22,02,43,11.60
2014,07,22,02,44,11.60
2014,07,22,02,45,11.60
2014,07,22,02,46,11.60
2014,07,22,02,47,11.60
2014,07,22,02,48,11.50
2014,07,22,02,49,11.50
2014,07,22,02,50,11.50
2014,07,22,02,51,11.50
2014,07,22,02,52,11.40
2014,07,22,02,53,11.40
2014,07,22,02,54,11.40
2014,07,22,02,55,11.40
2014,07,22,02,56,11.40
2014,07,22,02,57,11.40
2014,07,22,02,58,11.40
2014,07,22,02,59,11.40
2014,07,22,03,00,11.40
2014,07,22,03,01,11.40
2014,07,22,03,02,11.40
2014,07,22,03,03,11.40
2014,07,22,03,04,11.40
2014,07,22,03,05,11.50
2014,07,22,03,06,11.50
2014,07,22,03,07,11.40
2014,07,22,03,08,11.40
2014,07,22,03,09,11.40
2014,07,22,03,10,11.30
2014,07,22,03,11,11.30
2014,07,22,03,12,11.30
2014,07,22,03,13,11.30
2014,07,22,03,14,11.30
2014,07,22,03,15,11.30
2014,07,22,03,16,11.30
2014,07,22,03,17,11.30
2014,07,22,03,18,11.30
2014,07,22,03,19,11.30
2014,07,22,03,20,11.30
2014,07,22,03,21,11.30
2014,07,22,03,22,11.30
2014,07,22,03,23,11.30
2014,07,22,03,24,11.30
2014,07,22,03,25,11.30
2014,07,22,03,26,11.30
2014,07,22,03,27,11.40
2014,07,22,03,28,11.40
2014,07,22,03,29,11.40
2014,07,22,03,30,11.30
2014,07,22,03,31,11.30
2014,07,22,03,32,11.30
2014,07,22,03,33,11.30
2014,07,22,03,34,11.30
2014,07,22,03,35,11.30
2014,07,22,03,36,11.20
2014,07,22,03,37,11.20
2014,07,22,03,38,11.20
2014,07,22,03,39,11.20
2014,07,22,03,40,11.20
2014,07,22,03,41,11.20
2014,07,22,03,42,11.30
2014,07,22,03,43,11.30
2014,07,22,03,44,11.30
2014,07,22,03,45,11.30
2014,07,22,03,46,11.30
2014,07,22,03,47,11.30
2014,07,22,03,48,11.30
2014,07,22,03,49,11.30
2014,07,22,03,50,11.30
2014,07,22,03,51,11.20
2014,07,22,03,52,11.20
2014,07,22,03,53,11.20
2014,07,22,03,54,11.10
2014,07,22,03,55,11.10
2014,07,22,03,56,11.10
2014,07,22,03,57,11.10
2014,07,22,03,58,11.10
2014,07,22,03,59,11.00
2014,07,22,04,00,11.00
2014,07,22,04,01,11.00
2014,07,22,04,02,11.00
2014,07,22,04,03,11.00
2014,07,22,04,04,11.00
2014,07,22,04,05,11.00
2014,07,22,04,06,11.00
2014,07,22,04,07,11.00
2014,07,22,04,08,11.00
2014,07,22,04,09,11.00
2014,07,22,04,10,11.00
2014,07,22,04,11,10.90
2014,07,22,04,12,10.90
2014,07,22,04,13,10.90
2014,07,22,04,14,10.90
2014,07,22,04,15,10.90
2014,07,22,04,16,10.90
2014,07,22,04,17,10.90
2014,07,22,04,18,10.90
2014,07,22,04,19,10.90
2014,07,22,04,20,10.90
2014,07,22,04,21,10.80
2014,07,22,04,22,10.80
2014,07,22,04,23,10.80
2014,07,22,04,24,10.80
2014,07,22,04,25,10.80
2014,07,22,04,26,10.80
2014,07,22,04,27,10.80
2014,07,22,04,28,10.80
2014,07,22,04,29,10.80
2014,07,22,04,30,10.80
2014,07,22,04,31,10.90
2014,07,22,04,32,10.80
2014,07,22,04,33,10.80
2014,07,22,04,34,10.80
2014,07,22,04,35,10.80
2014,07,22,04,36,10.80
2014,07,22,04,37,10.80
2014,07,22,04,38,10.70
2014,07,22,04,39,10.70
2014,07,22,04,40,10.70
2014,07,22,04,41,10.70
2014,07,22,04,42,10.60
2014,07,22,04,43,10.60
2014,07,22,04,44,10.60
2014,07,22,04,45,10.60
2014,07,22,04,46,10.60
2014,07,22,04,47,10.50
2014,07,22,04,48,10.50
2014,07,22,04,49,10.50
2014,07,22,04,50,10.50
2014,07,22,04,51,10.50
2014,07,22,04,52,10.60
2014,07,22,04,53,10.60
2014,07,22,04,54,10.60
2014,07,22,04,55,10.50
2014,07,22,04,56,10.60
2014,07,22,04,57,10.60
2014,07,22,04,58,10.60
2014,07,22,04,59,10.60
2014,07,22,05,00,10.60
2014,07,22,05,01,10.60
2014,07,22,05,02,10.60
2014,07,22,05,03,10.60
2014,07,22,05,04,10.60
2014,07,22,05,05,10.60
2014,07,22,05,06,10.60
2014,07,22,05,07,10.50
2014,07,22,05,08,10.50
2014,07,22,05,09,10.50
2014,07,22,05,10,10.50
2014,07,22,05,11,10.40
2014,07,22,05,12,10.40
2014,07,22,05,13,10.40
2014,07,22,05,14,10.30
2014,07,22,05,15,10.30
2014,07,22,05,16,10.30
2014,07,22,05,17,10.30
2014,07,22,05,18,10.30
2014,07,22,05,19,10.30
2014,07,22,05,20,10.30
2014,07,22,05,21,10.30
2014,07,22,05,22,10.30
2014,07,22,05,23,10.30
2014,07,22,05,24,10.30
2014,07,22,05,25,10.30
2014,07,22,05,26,10.30
2014,07,22,05,27,10.30
2014,07,22,05,28,10.30
2014,07,22,05,29,10.30
2014,07,22,05,30,10.30
2014,07,22,05,31,10.30
2014,07,22,05,32,10.30
2014,07,22,05,33,10.30
2014,07,22,05,34,10.30
2014,07,22,05,35,10.30
2014,07,22,05,36,10.30
2014,07,22,05,37,10.30
2014,07,22,05,38,10.30
2014,07,22,05,39,10.30
2014,07,22,05,40,10.20
2014,07,22,05,41,10.20
2014,07,22,05,42,10.20
2014,07,22,05,43,10.20
2014,07,22,05,44,10.20
2014,07,22,05,45,10.20
2014,07,22,05,46,10.20
2014,07,22,05,47,10.20
2014,07,22,05,48,10.20
2014,07,22,05,49,10.30
2014,07,22,05,50,10.30
2014,07,22,05,51,10.20
2014,07,22,05,52,10.30
2014,07,22,05,53,10.30
2014,07,22,05,54,10.30
2014,07,22,05,55,10.30
2014,07,22,05,56,10.20
2014,07,22,05,57,10.20
2014,07,22,05,58,10.30
2014,07,22,05,59,10.20
2014,07,22,06,00,10.20
2014,07,22,06,01,10.20
2014,07,22,06,02,10.20
2014,07,22,06,03,10.20
2014,07,22,06,04,10.20
2014,07,22,06,05,10.20
2014,07,22,06,06,10.20
2014,07,22,06,07,10.20
2014,07,22,06,08,10.20
2014,07,22,06,09,10.20
2014,07,22,06,10,10.20
2014,07,22,06,11,10.10
2014,07,22,06,12,10.20
2014,07,22,06,13,10.20
2014,07,22,06,14,10.20
2014,07,22,06,15,10.20
2014,07,22,06,16,10.20
2014,07,22,06,17,10.30
2014,07,22,06,18,10.30
2014,07,22,06,19,10.30
2014,07,22,06,20,10.30
2014,07,22,06,21,10.40
2014,07,22,06,22,10.40
2014,07,22,06,23,10.40
2014,07,22,06,24,10.40
2014,07,22,06,25,10.40
2014,07,22,06,26,10.40
2014,07,22,06,27,10.40
2014,07,22,06,28,10.40
2014,07,22,06,29,10.50
2014,07,22,06,30,10.50
2014,07,22,06,31,10.50
2014,07,22,06,32,10.50
2014,07,22,06,33,10.60
2014,07,22,06,34,10.60
2014,07,22,06,35,10.60
2014,07,22,06,36,10.60
2014,07,22,06,37,10.60
2014,07,22,06,38,10.70
2014,07,22,06,39,10.70
2014,07,22,06,40,10.70
2014,07,22,06,41,10.70
2014,07,22,06,42,10.70
2014,07,22,06,43,10.70
2014,07,22,06,44,10.70
2014,07,22,06,45,10.70
2014,07,22,06,46,10.70
2014,07,22,06,47,10.70
2014,07,22,06,48,10.70
2014,07,22,06,49,10.70
2014,07,22,06,50,10.70
2014,07,22,06,51,10.70
2014,07,22,06,52,10.80
2014,07,22,06,53,10.80
2014,07,22,06,54,10.80
2014,07,22,06,55,10.80
2014,07,22,06,56,10.80
2014,07,22,06,57,10.80
2014,07,22,06,58,10.90
2014,07,22,06,59,10.90
2014,07,22,07,00,10.90
2014,07,22,07,01,11.00
2014,07,22,07,02,11.00
2014,07,22,07,03,11.00
2014,07,22,07,04,11.10
2014,07,22,07,05,11.10
2014,07,22,07,06,11.20
2014,07,22,07,07,11.20
2014,07,22,07,08,11.30
2014,07,22,07,09,11.40
2014,07,22,07,10,11.50
2014,07,22,07,11,11.50
2014,07,22,07,12,11.60
2014,07,22,07,13,11.60
2014,07,22,07,14,11.70
2014,07,22,07,15,11.70
2014,07,22,07,16,11.80
2014,07,22,07,17,11.90
2014,07,22,07,18,11.90
2014,07,22,07,19,12.10
2014,07,22,07,20,12.20
2014,07,22,07,21,12.30
2014,07,22,07,22,12.40
2014,07,22,07,23,12.50
2014,07,22,07,24,12.60
2014,07,22,07,25,12.80
2014,07,22,07,26,12.80
2014,07,22,07,27,12.90
2014,07,22,07,28,13.00
2014,07,22,07,29,13.10
2014,07,22,07,30,13.20
2014,07,22,07,31,13.20
2014,07,22,07,32,13.30
2014,07,22,07,33,13.30
2014,07,22,07,34,13.40
2014,07,22,07,35,13.50
2014,07,22,07,36,13.50
2014,07,22,07,37,13.60
2014,07,22,07,38,13.60
2014,07,22,07,39,13.60
2014,07,22,07,40,13.70
2014,07,22,07,41,13.70
2014,07,22,07,42,13.80
2014,07,22,07,43,13.80
2014,07,22,07,44,13.80
2014,07,22,07,45,13.90
2014,07,22,07,46,13.90
2014,07,22,07,47,13.90
2014,07,22,07,48,13.90
2014,07,22,07,49,13.90
2014,07,22,07,50,13.90
2014,07,22,07,51,13.90
2014,07,22,07,52,13.80
2014,07,22,07,53,13.80
2014,07,22,07,54,13.80
2014,07,22,07,55,13.80
2014,07,22,07,56,13.80
2014,07,22,07,57,13.80
2014,07,22,07,58,13.90
2014,07,22,07,59,13.90
2014,07,22,08,00,13.90
2014,07,22,08,01,14.00
2014,07,22,08,02,14.00
2014,07,22,08,03,14.00
2014,07,22,08,04,14.00
2014,07,22,08,05,14.10
2014,07,22,08,06,14.10
2014,07,22,08,07,14.20
2014,07,22,08,08,14.20
2014,07,22,08,09,14.30
2014,07,22,08,10,14.30
2014,07,22,08,11,14.30
2014,07,22,08,12,14.40
2014,07,22,08,13,14.40
2014,07,22,08,14,14.40
2014,07,22,08,15,14.40
2014,07,22,08,16,14.50
2014,07,22,08,17,14.50
2014,07,22,08,18,14.50
2014,07,22,08,19,14.60
2014,07,22,08,20,14.60
2014,07,22,08,21,14.60
2014,07,22,08,22,14.70
2014,07,22,08,23,14.70
2014,07,22,08,24,14.70
2014,07,22,08,25,14.70
2014,07,22,08,26,14.70
2014,07,22,08,27,14.80
2014,07,22,08,28,14.80
2014,07,22,08,29,14.90
2014,07,22,08,30,15.00
2014,07,22,08,31,15.00
2014,07,22,08,32,15.00
2014,07,22,08,33,15.00
2014,07,22,08,34,15.00
2014,07,22,08,35,15.00
2014,07,22,08,36,15.00
2014,07,22,08,37,15.00
2014,07,22,08,38,15.10
2014,07,22,08,39,15.10
2014,07,22,08,40,15.10
2014,07,22,08,41,15.10
2014,07,22,08,42,15.10
2014,07,22,08,43,15.10
2014,07,22,08,44,15.00
2014,07,22,08,45,15.00
2014,07,22,08,46,15.00
2014,07,22,08,47,15.00
2014,07,22,08,48,15.10
2014,07,22,08,49,15.10
2014,07,22,08,50,15.20
2014,07,22,08,51,15.20
2014,07,22,08,52,15.30
2014,07,22,08,53,15.30
2014,07,22,08,54,15.40
2014,07,22,08,55,15.40
2014,07,22,08,56,15.50
2014,07,22,08,57,15.50
2014,07,22,08,58,15.60
2014,07,22,08,59,15.60
2014,07,22,09,00,15.60
2014,07,22,09,01,15.60
2014,07,22,09,02,15.70
2014,07,22,09,03,15.70
2014,07,22,09,04,15.70
2014,07,22,09,05,15.70
2014,07,22,09,06,15.70
2014,07,22,09,07,15.70
2014,07,22,09,08,15.70
2014,07,22,09,09,15.70
2014,07,22,09,10,15.70
2014,07,22,09,11,15.60
2014,07,22,09,12,15.60
2014,07,22,09,13,15.60
2014,07,22,09,14,15.60
2014,07,22,09,15,15.60
2014,07,22,09,16,15.50
2014,07,22,09,17,15.50
2014,07,22,09,18,15.50
2014,07,22,09,19,15.40
2014,07,22,09,20,15.40
2014,07,22,09,21,15.30
2014,07,22,09,22,15.30
2014,07,22,09,23,15.30
2014,07,22,09,24,15.30
2014,07,22,09,25,15.30
2014,07,22,09,26,15.30
2014,07,22,09,27,15.30
2014,07,22,09,28,15.40
2014,07,22,09,29,15.40
2014,07,22,09,30,15.50
2014,07,22,09,31,15.60
2014,07,22,09,32,15.70
2014,07,22,09,33,15.80
2014,07,22,09,34,15.90
2014,07,22,09,35,16.00
2014,07,22,09,36,16.00
2014,07,22,09,37,16.10
2014,07,22,09,38,16.10
2014,07,22,09,39,16.10
2014,07,22,09,40,16.10
2014,07,22,09,41,16.20
2014,07,22,09,42,16.20
2014,07,22,09,43,16.20
2014,07,22,09,44,16.20
2014,07,22,09,45,16.20
2014,07,22,09,46,16.20
2014,07,22,09,47,16.20
2014,07,22,09,48,16.20
2014,07,22,09,49,16.20
2014,07,22,09,50,16.20
2014,07,22,09,51,16.20
2014,07,22,09,52,16.20
2014,07,22,09,53,16.20
2014,07,22,09,54,16.30
2014,07,22,09,55,16.30
2014,07,22,09,56,16.40
2014,07,22,09,57,16.50
2014,07,22,09,58,16.60
2014,07,22,09,59,16.70
2014,07,22,10,00,16.70
2014,07,22,10,01,16.80
2014,07,22,10,02,16.80
2014,07,22,10,03,16.80
2014,07,22,10,04,16.80
2014,07,22,10,05,16.70
2014,07,22,10,06,16.70
2014,07,22,10,07,16.80
2014,07,22,10,08,16.80
2014,07,22,10,09,16.80
2014,07,22,10,10,16.90
2014,07,22,10,11,16.90
2014,07,22,10,12,16.90
2014,07,22,10,13,16.90
2014,07,22,10,14,16.90
2014,07,22,10,15,16.90
2014,07,22,10,16,16.90
2014,07,22,10,17,16.90
2014,07,22,10,18,17.00
2014,07,22,10,19,17.10
2014,07,22,10,20,17.20
2014,07,22,10,21,17.20
2014,07,22,10,22,17.30
2014,07,22,10,23,17.40
2014,07,22,10,24,17.50
2014,07,22,10,25,17.70
2014,07,22,10,26,17.80
2014,07,22,10,27,17.90
2014,07,22,10,28,18.00
2014,07,22,10,29,18.10
2014,07,22,10,30,18.20
2014,07,22,10,31,18.30
2014,07,22,10,32,18.50
2014,07,22,10,33,18.60
2014,07,22,10,34,18.80
2014,07,22,10,35,18.90
2014,07,22,10,36,19.00
2014,07,22,10,37,19.10
2014,07,22,10,38,19.10
2014,07,22,10,39,19.20
2014,07,22,10,40,19.10
2014,07,22,10,41,19.00
2014,07,22,10,42,19.00
2014,07,22,10,43,18.90
2014,07,22,10,44,18.80
2014,07,22,10,45,18.70
2014,07,22,10,46,18.50
2014,07,22,10,47,18.50
2014,07,22,10,48,18.60
2014,07,22,10,49,18.60
2014,07,22,10,50,18.70
2014,07,22,10,51,18.80
2014,07,22,10,52,18.90
2014,07,22,10,53,19.00
2014,07,22,10,54,19.10
2014,07,22,10,55,19.10
2014,07,22,10,56,19.10
2014,07,22,10,57,19.10
2014,07,22,10,58,19.20
2014,07,22,10,59,19.10
2014,07,22,11,00,19.00
2014,07,22,11,01,18.90
2014,07,22,11,02,18.90
2014,07,22,11,03,18.80
2014,07,22,11,04,18.80
2014,07,22,11,05,18.80
2014,07,22,11,06,18.80
2014,07,22,11,07,18.70
2014,07,22,11,08,18.70
2014,07,22,11,09,18.60
2014,07,22,11,10,18.60
2014,07,22,11,11,18.70
2014,07,22,11,12,18.80
2014,07,22,11,13,18.90
2014,07,22,11,14,19.00
2014,07,22,11,15,19.00
2014,07,22,11,16,19.10
2014,07,22,11,17,19.10
2014,07,22,11,18,19.10
2014,07,22,11,19,19.00
2014,07,22,11,20,18.90
2014,07,22,11,21,18.70
2014,07,22,11,22,18.60
2014,07,22,11,23,18.50
2014,07,22,11,24,18.50
2014,07,22,11,25,18.50
2014,07,22,11,26,18.60
2014,07,22,11,27,18.50
2014,07,22,11,28,18.40
2014,07,22,11,29,18.40
2014,07,22,11,30,18.40
2014,07,22,11,31,18.40
2014,07,22,11,32,18.50
2014,07,22,11,33,18.70
2014,07,22,11,34,18.80
2014,07,22,11,35,19.00
2014,07,22,11,36,19.10
2014,07,22,11,37,19.00
2014,07,22,11,38,19.00
2014,07,22,11,39,19.00
2014,07,22,11,40,18.90
2014,07,22,11,41,18.90
2014,07,22,11,42,18.90
2014,07,22,11,43,19.00
2014,07,22,11,44,19.10
2014,07,22,11,45,19.20
2014,07,22,11,46,19.20
2014,07,22,11,47,19.30
2014,07,22,11,48,19.30
2014,07,22,11,49,19.20
2014,07,22,11,50,19.10
2014,07,22,11,51,18.90
2014,07,22,11,52,18.90
2014,07,22,11,53,18.80
2014,07,22,11,54,18.80
2014,07,22,11,55,18.90
2014,07,22,11,56,18.80
2014,07,22,11,57,18.80
2014,07,22,11,58,18.80
2014,07,22,11,59,18.80
2014,07,22,12,00,18.70
2014,07,22,12,01,18.60
2014,07,22,12,02,18.70
2014,07,22,12,03,18.70
2014,07,22,12,04,18.80
2014,07,22,12,05,18.90
2014,07,22,12,06,18.90
2014,07,22,12,07,18.90
2014,07,22,12,08,18.90
2014,07,22,12,09,18.80
2014,07,22,12,10,18.80
2014,07,22,12,11,18.70
2014,07,22,12,12,18.70
2014,07,22,12,13,18.70
2014,07,22,12,14,18.70
2014,07,22,12,15,18.70
2014,07,22,12,16,18.70
2014,07,22,12,17,18.70
2014,07,22,12,18,18.80
2014,07,22,12,19,18.80
2014,07,22,12,20,18.90
2014,07,22,12,21,19.00
2014,07,22,12,22,19.10
2014,07,22,12,23,19.20
2014,07,22,12,24,19.30
2014,07,22,12,25,19.50
2014,07,22,12,26,19.70
2014,07,22,12,27,19.70
2014,07,22,12,28,19.70
2014,07,22,12,29,19.70
2014,07,22,12,30,19.70
2014,07,22,12,31,19.60
2014,07,22,12,32,19.60
2014,07,22,12,33,19.70
2014,07,22,12,34,19.70
2014,07,22,12,35,19.70
2014,07,22,12,36,19.70
2014,07,22,12,37,19.80
2014,07,22,12,38,19.90
2014,07,22,12,39,20.00
2014,07,22,12,40,20.10
2014,07,22,12,41,20.10
2014,07,22,12,42,20.10
2014,07,22,12,43,20.20
2014,07,22,12,44,20.20
2014,07,22,12,45,20.20
2014,07,22,12,46,20.20
2014,07,22,12,47,20.20
2014,07,22,12,48,20.20
2014,07,22,12,49,20.10
2014,07,22,12,50,20.10
2014,07,22,12,51,20.20
2014,07,22,12,52,20.30
2014,07,22,12,53,20.40
2014,07,22,12,54,20.50
2014,07,22,12,55,20.60
2014,07,22,12,56,20.80
2014,07,22,12,57,21.00
2014,07,22,12,58,21.30
2014,07,22,12,59,21.50
2014,07,22,13,00,21.70
2014,07,22,13,01,21.90
2014,07,22,13,02,22.10
2014,07,22,13,03,22.20
2014,07,22,13,04,22.40
2014,07,22,13,05,22.50
2014,07,22,13,06,22.60
2014,07,22,13,07,22.60
2014,07,22,13,08,22.60
2014,07,22,13,09,22.80
2014,07,22,13,10,22.90
2014,07,22,13,11,23.00
2014,07,22,13,12,23.20
2014,07,22,13,13,23.30
2014,07,22,13,14,23.40
2014,07,22,13,15,23.60
2014,07,22,13,16,23.70
2014,07,22,13,17,23.70
2014,07,22,13,18,23.80
2014,07,22,13,19,23.90
2014,07,22,13,20,23.90
2014,07,22,13,21,23.90
2014,07,22,13,22,23.90
2014,07,22,13,23,23.90
2014,07,22,13,24,23.90
2014,07,22,13,25,23.80
2014,07,22,13,26,23.80
2014,07,22,13,27,23.70
2014,07,22,13,28,23.70
2014,07,22,13,29,23.60
2014,07,22,13,30,23.60
2014,07,22,13,31,23.60
2014,07,22,13,32,23.60
2014,07,22,13,33,23.50
2014,07,22,13,34,23.40
2014,07,22,13,35,23.40
2014,07,22,13,36,23.30
2014,07,22,13,37,23.30
2014,07,22,13,38,23.30
2014,07,22,13,39,23.40
2014,07,22,13,40,23.40
2014,07,22,13,41,23.50
2014,07,22,13,42,23.60
2014,07,22,13,43,23.70
2014,07,22,13,44,23.60
2014,07,22,13,45,23.40
2014,07,22,13,46,23.30
2014,07,22,13,47,23.30
2014,07,22,13,48,23.40
2014,07,22,13,49,23.40
2014,07,22,13,50,23.50
2014,07,22,13,51,23.60
2014,07,22,13,52,23.70
2014,07,22,13,53,23.80
2014,07,22,13,54,23.80
2014,07,22,13,55,23.90
2014,07,22,13,56,23.90
2014,07,22,13,57,23.90
2014,07,22,13,58,23.90
2014,07,22,13,59,23.90
2014,07,22,14,00,23.90
2014,07,22,14,01,23.80
2014,07,22,14,02,23.70
2014,07,22,14,03,23.70
2014,07,22,14,04,23.60
2014,07,22,14,05,23.60
2014,07,22,14,06,23.70
2014,07,22,14,07,23.70
2014,07,22,14,08,23.70
2014,07,22,14,09,23.80
2014,07,22,14,10,23.80
2014,07,22,14,11,23.90
2014,07,22,14,12,23.90
2014,07,22,14,13,23.90
2014,07,22,14,14,24.00
2014,07,22,14,15,24.00
2014,07,22,14,16,24.10
2014,07,22,14,17,24.20
2014,07,22,14,18,24.20
2014,07,22,14,19,24.30
2014,07,22,14,20,24.30
2014,07,22,14,21,24.30
2014,07,22,14,22,24.20
2014,07,22,14,23,24.20
2014,07,22,14,24,24.00
2014,07,22,14,25,23.90
2014,07,22,14,26,23.70
2014,07,22,14,27,23.50
2014,07,22,14,28,23.40
2014,07,22,14,29,23.40
2014,07,22,14,30,23.30
2014,07,22,14,31,23.20
2014,07,22,14,32,23.00
2014,07,22,14,33,22.90
2014,07,22,14,34,22.70
2014,07,22,14,35,22.70
2014,07,22,14,36,22.60
2014,07,22,14,37,22.60
2014,07,22,14,38,22.60
2014,07,22,14,39,22.60
2014,07,22,14,40,22.50
2014,07,22,14,41,22.50
2014,07,22,14,42,22.50
2014,07,22,14,43,22.40
2014,07,22,14,44,22.40
2014,07,22,14,45,22.30
2014,07,22,14,46,22.30
2014,07,22,14,47,22.30
2014,07,22,14,48,22.40
2014,07,22,14,49,22.40
2014,07,22,14,50,22.40
2014,07,22,14,51,22.40
2014,07,22,14,52,22.40
2014,07,22,14,53,22.50
2014,07,22,14,54,22.50
2014,07,22,14,55,22.60
2014,07,22,14,56,22.70
2014,07,22,14,57,22.80
2014,07,22,14,58,22.90
2014,07,22,14,59,23.00
2014,07,22,15,00,23.00
2014,07,22,15,01,23.10
2014,07,22,15,02,23.20
2014,07,22,15,03,23.20
2014,07,22,15,04,23.20
2014,07,22,15,05,23.20
2014,07,22,15,06,23.30
2014,07,22,15,07,23.20
2014,07,22,15,08,23.20
2014,07,22,15,09,23.20
2014,07,22,15,10,23.10
2014,07,22,15,11,23.10
2014,07,22,15,12,23.00
2014,07,22,15,13,22.90
2014,07,22,15,14,22.90
2014,07,22,15,15,22.80
2014,07,22,15,16,22.80
2014,07,22,15,17,22.70
2014,07,22,15,18,22.70
2014,07,22,15,19,22.70
2014,07,22,15,20,22.70
2014,07,22,15,21,22.70
2014,07,22,15,22,22.70
2014,07,22,15,23,22.70
2014,07,22,15,24,22.70
2014,07,22,15,25,22.70
2014,07,22,15,26,22.70
2014,07,22,15,27,22.70
2014,07,22,15,28,22.70
2014,07,22,15,29,22.60
2014,07,22,15,30,22.60
2014,07,22,15,31,22.40
2014,07,22,15,32,22.30
2014,07,22,15,33,22.10
2014,07,22,15,34,22.00
2014,07,22,15,35,21.70
2014,07,22,15,36,21.30
2014,07,22,15,37,21.00
2014,07,22,15,38,20.80
2014,07,22,15,39,20.70
2014,07,22,15,40,20.60
2014,07,22,15,41,20.60
2014,07,22,15,42,20.60
2014,07,22,15,43,20.70
2014,07,22,15,44,20.80
2014,07,22,15,45,20.80
2014,07,22,15,46,20.80
2014,07,22,15,47,20.80
2014,07,22,15,48,20.80
2014,07,22,15,49,20.90
2014,07,22,15,50,21.00
2014,07,22,15,51,21.00
2014,07,22,15,52,20.80
2014,07,22,15,53,20.80
2014,07,22,15,54,20.70
2014,07,22,15,55,20.80
2014,07,22,15,56,20.80
2014,07,22,15,57,20.90
2014,07,22,15,58,21.10
2014,07,22,15,59,21.30
2014,07,22,16,00,21.40
2014,07,22,16,01,21.40
2014,07,22,16,02,21.50
2014,07,22,16,03,21.50
2014,07,22,16,04,21.50
2014,07,22,16,05,21.40
2014,07,22,16,06,21.40
2014,07,22,16,07,21.30
2014,07,22,16,08,21.30
2014,07,22,16,09,21.20
2014,07,22,16,10,21.10
2014,07,22,16,11,21.10
2014,07,22,16,12,21.20
2014,07,22,16,13,21.00
2014,07,22,16,14,21.00
2014,07,22,16,15,20.90
2014,07,22,16,16,20.90
2014,07,22,16,17,20.90
2014,07,22,16,18,20.90
2014,07,22,16,19,20.90
2014,07,22,16,20,20.90
2014,07,22,16,21,20.90
2014,07,22,16,22,20.80
2014,07,22,16,23,20.80
2014,07,22,16,24,20.80
2014,07,22,16,25,20.80
2014,07,22,16,26,20.80
2014,07,22,16,27,20.80
2014,07,22,16,28,20.80
2014,07,22,16,29,20.70
2014,07,22,16,30,20.60
2014,07,22,16,31,20.50
2014,07,22,16,32,20.50
2014,07,22,16,33,20.40
2014,07,22,16,34,20.30
2014,07,22,16,35,20.20
2014,07,22,16,36,20.10
2014,07,22,16,37,20.10
2014,07,22,16,38,20.10
2014,07,22,16,39,20.10
2014,07,22,16,40,20.10
2014,07,22,16,41,20.10
2014,07,22,16,42,20.10
2014,07,22,16,43,20.10
2014,07,22,16,44,20.00
2014,07,22,16,45,20.00
2014,07,22,16,46,19.90
2014,07,22,16,47,19.90
2014,07,22,16,48,19.80
2014,07,22,16,49,19.80
2014,07,22,16,50,19.60
2014,07,22,16,51,19.60
2014,07,22,16,52,19.50
2014,07,22,16,53,19.50
2014,07,22,16,54,19.40
2014,07,22,16,55,19.40
2014,07,22,16,56,19.40
2014,07,22,16,57,19.40
2014,07,22,16,58,19.30
2014,07,22,16,59,19.30
2014,07,22,17,00,19.30
2014,07,22,17,01,19.30
2014,07,22,17,02,19.20
2014,07,22,17,03,19.20
2014,07,22,17,04,19.30
2014,07,22,17,05,19.30
2014,07,22,17,06,19.30
2014,07,22,17,07,19.30
2014,07,22,17,08,19.30
2014,07,22,17,09,19.30
2014,07,22,17,10,19.30
2014,07,22,17,11,19.30
2014,07,22,17,12,19.20
2014,07,22,17,13,19.20
2014,07,22,17,14,19.20
2014,07,22,17,15,19.30
2014,07,22,17,16,19.30
2014,07,22,17,17,19.40
2014,07,22,17,18,19.40
2014,07,22,17,19,19.50